[[{"header":{"parameterUnit":"m.s-1","parameterCategory":1,"la1":30.2991,"la2":30.254,"lo1":-89.0895,"lo2":-89.0444,"dy":0.0017,"dx":0.0017,"nx":28,"ny":28,"refTime":"2025-01-20T09:00:00:Z","depth":0,"parameterNumber":2,"parameterNumberName":"U-component_of_WINDS"},"data":[0,0,0,0,0,0,0,0,0,0,0,0,0,0,0,0,0,0,0,0,0,0,0,0,0,0,0,0,0,0,0,0,0,0,0,0,0,0,0,0,0,0,0,0,0,0,0,0,0,0,0,0,0,0,0,0,0,0,-1.433,-1.4331,0,-1.4422,-1.4423,-1.4424,-1.4359,-1.4356,-1.4354,-1.4351,-1.4452,-1.4457,-1.4462,0,0,0,0,0,0,0,0,0,0,0,0,0,-1.4106,-1.411,-1.433,-1.4331,-1.4333,-1.4422,-1.4423,-1.4424,-1.436,-1.4356,-1.4353,-1.4349,-1.445,-1.4456,-1.4463,0,0,0,0,0,0,0,0,0,0,0,0,0,-1.4201,-1.4111,-1.433,-1.4311,-1.431,-1.4421,-1.4423,-1.4425,-1.4361,-1.4356,-1.4352,-1.4348,-1.4448,-1.4455,-1.4463,-1.4601,0,0,-1.4488,-1.4492,0,0,0,0,0,0,0,0,-1.4196,-1.4209,-1.4313,-1.4312,-1.4312,-1.4374,-1.4381,-1.4484,-1.4362,-1.4342,-1.4351,-1.4346,-1.443,-1.4439,-1.4466,-1.4605,-1.461,-1.4489,-1.4494,-1.4497,-1.45,0,0,0,0,0,0,0,-1.4189,-1.4205,-1.4367,-1.4314,-1.4314,-1.43,-1.4309,-1.44,-1.4409,-1.4343,-1.4339,-1.435,-1.4429,-1.4459,-1.4468,-1.4611,-1.4489,-1.4496,-1.4501,-1.4504,-1.4869,-1.4873,0,0,0,0,0,0,-1.4183,-1.42,-1.4364,-1.4369,-1.4242,-1.4307,-1.4317,-1.4359,-1.4408,-1.4411,-1.4354,-1.4347,-1.4447,-1.4459,-1.4471,-1.4636,-1.4497,-1.4505,-1.4509,-1.4864,-1.487,-1.4875,0,0,0,0,0,0,-1.4179,-1.4199,-1.436,-1.4283,-1.4303,-1.4316,-1.4363,-1.4363,-1.4392,-1.4416,-1.4418,-1.4382,-1.4444,-1.446,-1.4569,-1.4639,-1.4508,-1.4516,-1.4858,-1.4866,-1.4872,-1.4967,0,0,0,0,0,0,-1.4173,-1.4197,-1.4248,-1.4285,-1.4307,-1.4455,-1.4368,-1.4368,-1.4406,-1.4398,-1.4443,-1.4446,-1.4442,-1.4557,-1.4577,-1.4648,-1.4522,-1.4852,-1.4861,-1.487,-1.4958,-1.4977,-1.4993,0,0,0,0,0,-1.4165,-1.4273,-1.4251,-1.4271,-1.4371,-1.4459,-1.4472,-1.4462,-1.4412,-1.4464,-1.4479,-1.4445,-1.4627,-1.4569,-1.459,-1.4665,-1.4848,-1.4859,-1.4869,-1.495,-1.4973,-1.4992,0,0,0,0,0,0,-1.4246,-1.4277,-1.4254,-1.4376,-1.4415,-1.4447,-1.4513,-1.4487,-1.4542,-1.4533,-1.452,-1.4531,-1.4645,-1.4665,-1.46,-1.4801,-1.473,-1.4746,-1.4784,-1.4806,-1.4823,-1.4817,-1.4529,0,0,0,0,0,-1.4278,-1.4345,-1.4369,-1.4475,-1.4495,-1.4501,-1.4539,-1.4528,-1.4568,-1.4585,-1.4608,-1.4651,-1.4718,-1.4762,-1.4825,-1.4959,-1.4969,-1.5021,-1.5039,-1.5053,-1.5068,-1.5141,-1.5165,-1.4911,-1.4911,-1.491,0,0,-1.4346,-1.437,-1.4414,-1.4492,-1.452,-1.4592,-1.4515,-1.4594,-1.4648,-1.4598,-1.4702,-1.472,-1.4767,-1.4889,-1.4944,-1.491,-1.514,-1.5067,-1.5078,-1.5085,-1.5155,-1.5179,-1.5201,-1.4918,-1.4917,-1.4916,0,0,-1.4505,-1.453,-1.4621,-1.4651,-1.4694,-1.4697,-1.4719,-1.4756,-1.4765,-1.4869,-1.4833,-1.4897,-1.5012,-1.5047,-1.508,-1.5252,-1.5224,-1.5273,-1.5366,-1.5438,-1.5458,-1.5475,-1.5539,-1.5561,-1.5287,-1.5287,-1.5287,0,-1.4584,-1.4688,-1.4672,-1.4753,-1.4789,-1.4744,-1.4838,-1.4869,-1.4932,-1.4959,-1.4918,-1.5061,-1.509,-1.522,-1.5262,-1.5289,-1.5316,-1.5269,-1.5456,-1.5473,-1.549,-1.555,-1.5574,-1.5293,-1.5292,-1.5292,-1.5291,0,-1.4784,-1.4857,-1.4926,-1.4985,-1.5029,-1.5116,-1.5115,-1.5161,-1.5146,-1.5154,-1.5261,-1.5292,-1.5361,-1.5391,-1.5378,-1.552,-1.5497,-1.5456,-1.5386,-1.552,-1.5577,-1.5599,-1.5301,-1.5299,-1.5297,-1.5296,0,0,-1.5,-1.5048,-1.5074,-1.5101,-1.5145,-1.5202,-1.5288,-1.5352,-1.5393,-1.5438,-1.5511,-1.5609,-1.5571,-1.5608,-1.5598,-1.5661,-1.5797,-1.5613,-1.5614,-1.5648,-1.5959,-1.5991,-1.6018,-1.5777,-1.5782,-1.5785,-1.5955,0,-1.5164,-1.5311,-1.5298,-1.5438,-1.5507,-1.5464,-1.5539,-1.5576,-1.5585,-1.5646,-1.5656,-1.5726,-1.567,-1.5693,-1.5753,-1.5768,-1.586,-1.5755,-1.5848,-1.5852,-1.584,-1.6047,-1.6081,-1.6241,-1.5977,-1.5981,-1.5983,0,-1.5375,-1.5424,-1.5571,-1.5605,-1.5633,-1.57,-1.5759,-1.5816,-1.5857,-1.586,-1.5901,-1.588,-1.5968,-1.5893,-1.6016,-1.5945,-1.5981,-1.5995,-1.6001,-1.6011,-1.5928,-1.6066,-1.6291,-1.6316,-1.6018,-1.6015,-1.6012,0,-1.552,-1.5624,-1.5725,-1.5749,-1.579,-1.5839,-1.5859,-1.5895,-1.5935,-1.5987,-1.6013,-1.6075,-1.611,-1.6159,-1.6156,-1.6101,-1.6282,-1.6206,-1.6289,-1.6289,-1.6331,-1.6329,-1.6568,-1.6351,-1.635,-1.635,-1.6349,0,-1.5706,-1.5798,-1.5791,-1.5854,-1.5956,-1.5941,-1.6043,-1.6057,-1.609,-1.6156,-1.6123,-1.6187,-1.6178,-1.6242,-1.624,-1.6343,-1.6359,-1.6365,-1.6364,-1.637,-1.6369,-1.6396,-1.6386,-1.6356,-1.6355,-1.6353,-1.6352,0,-1.5887,-1.5886,-1.5994,-1.6023,-1.6033,-1.6107,-1.6133,-1.6194,-1.6199,-1.6283,-1.6302,-1.6312,-1.6386,-1.6387,-1.6472,-1.6471,-1.6597,-1.6583,-1.6583,-1.6582,-1.6665,-1.6658,-1.6932,-1.6968,-1.6725,-1.6727,-1.6729,0,-1.6007,-1.6076,-1.6112,-1.6153,-1.6176,-1.6242,-1.6282,-1.627,-1.6313,-1.6364,-1.6419,-1.6489,-1.6545,-1.6665,-1.6681,-1.6746,-1.6734,-1.6825,-1.6744,-1.6747,-1.6738,-1.6735,-1.6743,-1.6843,-1.6845,-1.6847,-1.6849,0,-1.622,-1.6216,-1.6273,-1.6331,-1.6379,-1.6425,-1.6467,-1.6503,-1.6495,-1.6546,-1.662,-1.6663,-1.6748,-1.6819,-1.6882,-1.6904,-1.6877,-1.6874,-1.6897,-1.6905,-1.6903,-1.6908,-1.663,-1.6869,-1.6867,-1.6865,-1.6864,-1.6863,-1.6376,-1.6436,-1.6471,-1.6536,-1.6566,-1.6606,-1.6664,-1.6676,-1.6736,-1.6804,-1.6793,-1.6876,-1.6915,-1.6996,-1.7024,-1.709,-1.7058,-1.7091,-1.71,-1.7109,-1.7119,-1.689,-1.7101,-1.71,-1.71,-1.7099,-1.7099,0,-1.6589,-1.6609,-1.6669,-1.6728,-1.678,-1.6746,-1.6791,-1.6837,-1.691,-1.6948,-1.7002,-1.7088,-1.7156,-1.7176,-1.7243,-1.7292,-1.7281,-1.731,-1.7308,-1.7314,-1.7142,-1.7117,-1.7318,-1.7318,-1.7318,-1.7318,-1.7318,-1.7318,-1.6707,-1.6807,-1.6807,-1.6922,-1.6941,-1.7021,-1.7049,-1.7087,-1.7117,-1.7213,-1.7268,-1.728,-1.7312,-1.738,-1.7442,-1.7446,-1.7473,-1.7508,-1.7508,-1.7348,-1.7326,-1.7305,-1.7281,-1.7513,-1.7514,-1.7674,-1.7676,-1.7677]},{"header":{"parameterUnit":"m.s-1","parameterCategory":1,"la1":30.2991,"la2":30.254,"lo1":-89.0895,"lo2":-89.0444,"dy":0.0017,"dx":0.0017,"nx":28,"ny":28,"refTime":"2025-01-20T09:00:00:Z","depth":0,"parameterNumber":3,"parameterNumberName":"V-component_of_WINDS"},"data":[0,0,0,0,0,0,0,0,0,0,0,0,0,0,0,0,0,0,0,0,0,0,0,0,0,0,0,0,0,0,0,0,0,0,0,0,0,0,0,0,0,0,0,0,0,0,0,0,0,0,0,0,0,0,0,0,0,0,-8.4875,-8.4876,0,-8.492,-8.4921,-8.4921,-8.4728,-8.4722,-8.4717,-8.4711,-8.4755,-8.4761,-8.4768,0,0,0,0,0,0,0,0,0,0,0,0,0,-8.4619,-8.4625,-8.4875,-8.4876,-8.4877,-8.492,-8.4921,-8.4921,-8.4729,-8.4722,-8.4715,-8.4709,-8.4753,-8.476,-8.4768,0,0,0,0,0,0,0,0,0,0,0,0,0,-8.4704,-8.4627,-8.4875,-8.4786,-8.4778,-8.492,-8.4921,-8.4922,-8.4731,-8.4722,-8.4714,-8.4706,-8.475,-8.476,-8.4769,-8.4998,0,0,-8.4799,-8.4803,0,0,0,0,0,0,0,0,-8.4699,-8.4714,-8.4798,-8.4792,-8.4784,-8.481,-8.4846,-8.4947,-8.4733,-8.4749,-8.4711,-8.4702,-8.478,-8.4787,-8.4814,-8.5,-8.5002,-8.4799,-8.4805,-8.4809,-8.4812,0,0,0,0,0,0,0,-8.4694,-8.471,-8.4893,-8.48,-8.4791,-8.4742,-8.4745,-8.4864,-8.4811,-8.4747,-8.4733,-8.4741,-8.4774,-8.4805,-8.4813,-8.5003,-8.4799,-8.4808,-8.4814,-8.4817,-8.5379,-8.5388,0,0,0,0,0,0,-8.47,-8.4707,-8.4891,-8.4894,-8.472,-8.4754,-8.4757,-8.481,-8.4809,-8.4801,-8.4748,-8.4732,-8.4792,-8.4802,-8.4814,-8.5083,-8.4809,-8.4818,-8.4824,-8.537,-8.5381,-8.5391,0,0,0,0,0,0,-8.4695,-8.4718,-8.489,-8.4797,-8.4815,-8.4767,-8.4829,-8.4816,-8.4846,-8.481,-8.48,-8.4789,-8.4786,-8.48,-8.4954,-8.5081,-8.4823,-8.4832,-8.536,-8.5374,-8.5386,-8.5622,0,0,0,0,0,0,-8.4689,-8.4718,-8.4806,-8.48,-8.4821,-8.5031,-8.4837,-8.4823,-8.4863,-8.4842,-8.4846,-8.4839,-8.4781,-8.4941,-8.4964,-8.509,-8.4839,-8.5348,-8.5366,-8.5382,-8.5603,-8.5642,-8.5676,0,0,0,0,0,-8.468,-8.487,-8.4811,-8.4834,-8.4929,-8.5039,-8.505,-8.498,-8.4874,-8.4961,-8.4938,-8.4839,-8.5064,-8.4958,-8.4982,-8.5114,-8.534,-8.5361,-8.5381,-8.5587,-8.5635,-8.5675,0,0,0,0,0,0,-8.489,-8.4867,-8.4802,-8.4995,-8.5021,-8.5006,-8.5114,-8.5033,-8.5088,-8.5067,-8.4976,-8.4979,-8.5148,-8.5145,-8.5029,-8.5335,-8.5183,-8.5209,-8.5331,-8.5377,-8.5413,-8.541,-8.4847,0,0,0,0,0,-8.4959,-8.5051,-8.5025,-8.5198,-8.5214,-8.5163,-8.5207,-8.5151,-8.5173,-8.5183,-8.5171,-8.5196,-8.5271,-8.5323,-8.5391,-8.5601,-8.5599,-8.5703,-8.5739,-8.5769,-8.5794,-8.5905,-8.5951,-8.5459,-8.5459,-8.5458,0,0,-8.5102,-8.5101,-8.5164,-8.524,-8.5253,-8.535,-8.5173,-8.5282,-8.5352,-8.5199,-8.5344,-8.5336,-8.5357,-8.5541,-8.562,-8.5543,-8.5929,-8.5796,-8.582,-8.5828,-8.5931,-8.5978,-8.6019,-8.5473,-8.547,-8.5468,0,0,-8.5412,-8.5421,-8.5566,-8.5583,-8.5605,-8.5569,-8.5604,-8.5602,-8.5591,-8.5735,-8.5622,-8.5703,-8.5836,-8.5856,-8.5884,-8.6201,-8.6111,-8.6225,-8.6417,-8.6527,-8.6565,-8.6599,-8.6714,-8.6756,-8.6249,-8.625,-8.625,0,-8.5587,-8.5729,-8.5651,-8.5768,-8.5805,-8.5671,-8.5817,-8.5836,-8.588,-8.5908,-8.582,-8.5984,-8.5989,-8.6175,-8.6253,-8.6279,-8.6316,-8.6226,-8.6566,-8.66,-8.663,-8.6738,-8.6781,-8.6264,-8.6262,-8.6261,-8.6259,0,-8.5944,-8.6044,-8.6158,-8.6205,-8.6253,-8.6385,-8.6325,-8.6384,-8.6323,-8.6297,-8.6445,-8.6445,-8.6511,-8.6551,-8.6492,-8.6729,-8.6681,-8.6582,-8.6427,-8.6692,-8.6792,-8.6833,-8.6284,-8.6279,-8.6275,-8.6271,0,0,-8.6389,-8.639,-8.6434,-8.6453,-8.6467,-8.6542,-8.6667,-8.6732,-8.6785,-8.6818,-8.6921,-8.7036,-8.6944,-8.6976,-8.6917,-8.7013,-8.7266,-8.6902,-8.6901,-8.6971,-8.7528,-8.7604,-8.7653,-8.7205,-8.7213,-8.7219,-8.7526,0,-8.6694,-8.6909,-8.6842,-8.7058,-8.715,-8.7023,-8.7131,-8.7151,-8.7129,-8.7202,-8.7176,-8.726,-8.7132,-8.7151,-8.724,-8.7217,-8.7377,-8.7193,-8.73,-8.7305,-8.7301,-8.7705,-8.7786,-8.8076,-8.7565,-8.7571,-8.7576,0,-8.708,-8.7131,-8.7357,-8.7356,-8.7391,-8.7491,-8.7545,-8.7616,-8.7636,-8.7613,-8.7649,-8.757,-8.7691,-8.7535,-8.7701,-8.7578,-8.7616,-8.7612,-8.7621,-8.763,-8.7458,-8.7726,-8.8166,-8.8211,-8.7636,-8.7632,-8.7627,0,-8.7384,-8.7508,-8.766,-8.768,-8.7682,-8.7755,-8.7759,-8.777,-8.7813,-8.786,-8.7887,-8.7947,-8.7981,-8.8029,-8.7968,-8.7861,-8.8143,-8.7982,-8.8128,-8.813,-8.8195,-8.8192,-8.8649,-8.8218,-8.8217,-8.8216,-8.8215,0,-8.7733,-8.7877,-8.7796,-8.789,-8.8047,-8.7967,-8.8124,-8.8113,-8.8124,-8.8213,-8.8105,-8.819,-8.8105,-8.8182,-8.8135,-8.8279,-8.8295,-8.8279,-8.8266,-8.829,-8.8293,-8.8316,-8.8295,-8.8228,-8.8225,-8.8223,-8.8221,0,-8.8101,-8.8052,-8.8209,-8.8199,-8.8199,-8.8316,-8.8305,-8.8391,-8.836,-8.8474,-8.8495,-8.8448,-8.8533,-8.8477,-8.8562,-8.853,-8.872,-8.8677,-8.8715,-8.8704,-8.8853,-8.8841,-8.9343,-8.9406,-8.8933,-8.8937,-8.8941,0,-8.8328,-8.8436,-8.8437,-8.8489,-8.85,-8.8586,-8.863,-8.8554,-8.8604,-8.8635,-8.8717,-8.8792,-8.8849,-8.8991,-8.8963,-8.9027,-8.8986,-8.9158,-8.8995,-8.9017,-8.8991,-8.8986,-8.8997,-8.9192,-8.9197,-8.9202,-8.9205,0,-8.8736,-8.8707,-8.8776,-8.8837,-8.8893,-8.8937,-8.8972,-8.902,-8.8944,-8.9006,-8.9092,-8.9136,-8.9223,-8.93,-8.9354,-8.9355,-8.927,-8.9257,-8.9294,-8.9321,-8.9339,-8.9333,-8.8806,-8.9246,-8.9242,-8.9239,-8.9237,-8.9235,-8.9041,-8.9131,-8.9147,-8.9227,-8.9245,-8.928,-8.9361,-8.9341,-8.9411,-8.9478,-8.9428,-8.9531,-8.9546,-8.9609,-8.9622,-8.9701,-8.9631,-8.9685,-8.9698,-8.9714,-8.9735,-8.9326,-8.971,-8.9709,-8.9707,-8.9706,-8.9705,0,-8.9446,-8.9449,-8.9524,-8.9577,-8.964,-8.9552,-8.9586,-8.9644,-8.9737,-8.9759,-8.9817,-8.9916,-8.999,-8.9968,-9.0034,-9.0101,-9.0063,-9.0121,-9.0116,-9.0118,-8.9793,-8.9755,-9.0151,-9.0151,-9.0151,-9.0151,-9.015,-9.015,-8.9664,-8.9812,-8.9785,-8.9941,-8.9942,-9.0044,-9.0071,-9.0102,-9.012,-9.0236,-9.0297,-9.0282,-9.0287,-9.0352,-9.0415,-9.0407,-9.0437,-9.051,-9.0488,-9.0185,-9.0141,-9.0099,-9.0063,-9.0517,-9.0517,-9.0806,-9.0809,-9.0811]}]]